Flag Weather past 2 weeks in Košice, Slovakia

Now
34 °F

Partly sunny.


Feels Like: 34 °F
Forecast: 24 / 40 °F
Wind: 2 mph from North

Location: Kosice - Barca

Current Time: Nov 27, 2014 at 2:53:27 PM

Latest Report: Nov 27, 2014 at 2:30 PM


Visibility: N/A

Pressure: 30.15 "Hg

Humidity: 87%

Dew point: 30 °F

Location of KošiceLocation

Historic Weather in Košice — Graph

°F

Košice temperature yesterday

Maximum temperature yesterday: 41 °F (at 11:00 AM)
Minimum temperature yesterday: 32 °F (at 10:30 PM)
Average temperature yesterday: 36 °F

Past Weeks' High & Low Weather Summary

 TemperatureHumidityPressure
High59 °F (Nov 15, 12:30 PM)100% (Nov 15, 3:00 AM)30.42 "Hg (Nov 15, 3:00 AM)
Low27 °F (Nov 24, 2:30 AM)55% (Nov 13, 1:00 PM)29.86 "Hg (Nov 13, 1:30 AM)
Average42 °F87%30.11 "Hg
* Reported Nov 12 1:00 PM — Nov 27 1:30 PM, Košice, Weather by CustomWeather, © 2014

Note: Actual official high and low records may vary slightly from our data, if they occured in-between our weather recording intervals... More about our weather records

Advertising

Košice weather history for previous 24 hours

 ConditionsComfort  
Time TempWeatherWind HumidityBarometerVisibility
1:30 PM
Nov 27
34 °FPartly sunny.3 mph93%30.15 "HgN/A
1:00 PM34 °FPartly sunny.3 mph93%30.15 "HgN/A
12:30 PM34 °FBroken clouds.5 mph93%30.15 "HgN/A
12:00 PM34 °FBroken clouds.5 mph93%30.15 "HgN/A
11:30 AM34 °FBroken clouds.3 mph93%30.18 "Hg4 mi
11:00 AM32 °FPartly sunny.3 mph100%30.18 "Hg4 mi
10:30 AM32 °FPartly sunny.6 mph100%30.18 "Hg4 mi
10:00 AM32 °FIce fog.5 mph100%30.18 "Hg3 mi
9:30 AM32 °FIce fog.6 mph100%30.18 "Hg2 mi
9:00 AM32 °FIce fog.5 mph100%30.18 "Hg2 mi
8:30 AM32 °FIce fog.7 mph100%30.18 "Hg1 mi
8:00 AM32 °FPartly sunny.5 mph100%30.18 "Hg1 mi
7:30 AM32 °FPartly sunny.3 mph100%30.18 "Hg1 mi
7:00 AM32 °FFog.3 mph100%30.18 "Hg0 mi
6:30 AM32 °FDrizzle. Fog.3 mph100%30.18 "Hg0 mi
6:00 AM32 °FDrizzle. Fog.2 mph100%30.18 "Hg0 mi
5:30 AM32 °FDrizzle. Fog.3 mph100%30.18 "Hg0 mi
5:00 AM32 °FDrizzle. Fog.3 mph100%30.18 "Hg0 mi
4:30 AM32 °FDrizzle. Fog.3 mph100%30.18 "Hg0 mi
4:00 AM32 °FDrizzle. Fog.3 mph100%30.18 "Hg0 mi
3:30 AM32 °FDrizzle. Fog.3 mph100%30.18 "Hg0 mi
3:00 AM32 °FDrizzle. Fog.5 mph100%30.18 "Hg0 mi
2:30 AM32 °FFog.5 mph100%30.18 "Hg0 mi
2:00 AM32 °FFog.6 mph100%30.21 "Hg0 mi
1:30 AM34 °FFog.3 mph100%30.21 "Hg0 mi
1:00 AM34 °FFog.1 mph93%30.21 "Hg1 mi
12:30 AM34 °FFog.2 mph93%30.21 "Hg1 mi
12:00 AM34 °FFog.3 mph93%30.21 "Hg1 mi
11:30 PM
Nov 26
34 °FFog.2 mph93%30.21 "Hg1 mi
11:00 PM32 °FFog.1 mph100%30.21 "Hg0 mi
10:30 PM32 °FFog.1 mph100%30.21 "Hg0 mi
10:00 PM34 °FFog.1 mph93%30.21 "Hg0 mi
9:30 PM34 °FFog.1 mph100%30.21 "Hg0 mi
9:00 PM34 °FFog.2 mph100%30.21 "Hg0 mi
8:30 PM34 °FFog.1 mph93%30.21 "Hg0 mi
8:00 PM34 °FFog.2 mph100%30.21 "Hg0 mi
7:30 PM34 °FFog.2 mph100%30.21 "Hg0 mi
7:00 PM34 °FFog.2 mph93%30.21 "Hg1 mi
6:30 PM34 °FFog.5 mph100%30.24 "Hg2 mi
6:00 PM34 °FFog.3 mph93%30.24 "Hg3 mi
5:30 PM36 °FPassing clouds.2 mph93%30.24 "Hg4 mi
5:00 PM36 °FPassing clouds.3 mph93%30.24 "Hg5 mi
4:30 PM36 °FPassing clouds.5 mph93%30.24 "Hg5 mi
4:00 PM37 °FPassing clouds.2 mph87%30.21 "HgN/A
3:30 PM37 °FScattered clouds.1 mph87%30.21 "HgN/A
3:00 PM39 °FScattered clouds.1 mph81%30.21 "HgN/A
2:30 PM39 °FScattered clouds.3 mph81%30.21 "HgN/A
2:00 PM41 °FPartly sunny.7 mph76%30.24 "HgN/A
Weather by CustomWeather, © 2014

See weather overviewHow to use our weather pages